When you browse on this site, cookies collect data to enhance your experience and personalize the content and advertising you see.
Visit our Privacy Policy to learn more. By continuing to use the site, you agree to this use of cookies and data.
  • In Latvia
  • List of Countries
  • For 7 days
  • Water Temperature
  • Satellite Maps
  • Weather Map
  • Weather Widgets
  • user-avatar
    Login

    Hourly Weather Kuzkino

    Today, 26 June, Wednesday

    Time Temperature Precipitation Wind Pressure Humidity
    00:00 +14°C° 0 mm 2 mps 749 mmHg 82%
    01:00 +14°C° 0 mm 2 mps 749 mmHg 82%
    02:00 +14°C° 0 mm 2 mps 749 mmHg 83%
    03:00 +14°C° 0 mm 1 mps 748 mmHg 83%
    04:00 +14°C° 0 mm 2 mps 748 mmHg 81%
    05:00 +14°C° 0 mm 3 mps 748 mmHg 80%
    06:00 +14°C° 0 mm 3 mps 748 mmHg 78%
    07:00 +15°C° 0.1 mm 4 mps 748 mmHg 74%
    08:00 +17°C° 0.1 mm 4 mps 748 mmHg 70%
    09:00 +19°C° 0.1 mm 4 mps 748 mmHg 65%
    10:00 +19°C° 0.2 mm 4 mps 748 mmHg 64%
    11:00 +19°C° 0.2 mm 5 mps 748 mmHg 62%
    12:00 +20°C° 0.2 mm 5 mps 748 mmHg 61%
    13:00 +20°C° 0.1 mm 4 mps 748 mmHg 59%
    14:00 +20°C° 0.1 mm 4 mps 748 mmHg 56%
    15:00 +20°C° 0.1 mm 4 mps 748 mmHg 54%
    16:00 +20°C° 0 mm 4 mps 747 mmHg 57%
    17:00 +19°C° 0 mm 3 mps 747 mmHg 61%
    18:00 +18°C° 0 mm 3 mps 747 mmHg 64%
    19:00 +17°C° 0 mm 3 mps 747 mmHg 68%
    20:00 +15°C° 0 mm 2 mps 747 mmHg 73%
    21:00 +13°C° 0 mm 1 mps 746 mmHg 78%
    22:00 +13°C° 0 mm 1 mps 746 mmHg 79%
    23:00 +12°C° 0 mm 1 mps 746 mmHg 81%

    Tomorrow, 27 June, Thursday

    Time Temperature Precipitation Wind Pressure Humidity
    00:00 +11°C° 0 mm 0 mps 745 mmHg 82%
    01:00 +12°C° 0 mm 1 mps 745 mmHg 80%
    02:00 +12°C° 0 mm 1 mps 744 mmHg 78%
    03:00 +13°C° 0 mm 1 mps 744 mmHg 77%
    04:00 +13°C° 0.1 mm 2 mps 743 mmHg 78%
    05:00 +13°C° 0.1 mm 2 mps 743 mmHg 79%
    06:00 +12°C° 0.1 mm 3 mps 742 mmHg 80%
    07:00 +12°C° 0.7 mm 4 mps 742 mmHg 84%
    08:00 +12°C° 0.7 mm 4 mps 741 mmHg 89%
    09:00 +10°C° 0.7 mm 5 mps 740 mmHg 94%
    10:00 +13°C° 0.2 mm 5 mps 740 mmHg 91%
    11:00 +14°C° 0.2 mm 5 mps 740 mmHg 89%
    12:00 +15°C° 0.2 mm 5 mps 739 mmHg 86%
    13:00 +16°C° 0.2 mm 6 mps 739 mmHg 81%
    14:00 +16°C° 0.2 mm 7 mps 739 mmHg 76%
    15:00 +16°C° 0.2 mm 7 mps 739 mmHg 71%
    16:00 +15°C° 0 mm 6 mps 739 mmHg 73%
    17:00 +14°C° 0 mm 6 mps 738 mmHg 76%
    18:00 +13°C° 0 mm 5 mps 738 mmHg 78%
    19:00 +12°C° 0 mm 4 mps 738 mmHg 82%
    20:00 +11°C° 0 mm 3 mps 738 mmHg 86%
    21:00 +9°C° 0 mm 2 mps 738 mmHg 90%
    22:00 +9°C° 0 mm 2 mps 738 mmHg 91%
    23:00 +8°C° 0 mm 2 mps 738 mmHg 93%

    Day after tomorrow, 28 June, Friday

    Time Temperature Precipitation Wind Pressure Humidity
    00:00 +8°C° 0 mm 2 mps 737 mmHg 94%
    01:00 +9°C° 0 mm 1 mps 737 mmHg 94%
    02:00 +9°C° 0 mm 1 mps 737 mmHg 94%
    03:00 +9°C° 0 mm 1 mps 736 mmHg 95%
    04:00 +10°C° 0 mm 1 mps 736 mmHg 92%
    05:00 +9°C° 0 mm 2 mps 736 mmHg 90%
    06:00 +10°C° 0 mm 2 mps 735 mmHg 88%
    07:00 +10°C° 0.5 mm 3 mps 735 mmHg 90%
    08:00 +10°C° 0.5 mm 3 mps 735 mmHg 92%
    09:00 +10°C° 0.5 mm 4 mps 734 mmHg 94%
    10:00 +11°C° 0.2 mm 4 mps 734 mmHg 91%
    11:00 +12°C° 0.2 mm 5 mps 733 mmHg 88%
    12:00 +13°C° 0.2 mm 6 mps 733 mmHg 85%
    13:00 +15°C° 0 mm 5 mps 733 mmHg 83%
    14:00 +19°C° 0 mm 5 mps 732 mmHg 81%
    15:00 +21°C° 0 mm 5 mps 732 mmHg 78%
    16:00 +20°C° 0.8 mm 4 mps 732 mmHg 80%
    17:00 +20°C° 0.8 mm 4 mps 731 mmHg 81%
    18:00 +20°C° 0.8 mm 3 mps 731 mmHg 82%
    19:00 +19°C° 0.2 mm 3 mps 731 mmHg 84%
    20:00 +18°C° 0.2 mm 3 mps 731 mmHg 85%
    21:00 +17°C° 0.2 mm 3 mps 731 mmHg 87%
    22:00 +17°C° 0.2 mm 2 mps 731 mmHg 89%
    23:00 +16°C° 0.2 mm 2 mps 731 mmHg 90%

    29 June, Saturday

    Time Temperature Precipitation Wind Pressure Humidity
    00:00 +16°C° 0.2 mm 2 mps 731 mmHg 92%
    01:00 +16°C° 0.1 mm 2 mps 731 mmHg 93%
    02:00 +16°C° 0.1 mm 2 mps 731 mmHg 94%
    03:00 +16°C° 0.1 mm 3 mps 731 mmHg 95%
    04:00 +16°C° 0 mm 3 mps 731 mmHg 95%
    05:00 +17°C° 0 mm 3 mps 731 mmHg 94%
    06:00 +17°C° 0 mm 3 mps 731 mmHg 94%
    07:00 +18°C° 0 mm 4 mps 732 mmHg 87%
    08:00 +20°C° 0 mm 4 mps 732 mmHg 81%
    09:00 +21°C° 0 mm 5 mps 732 mmHg 74%
    10:00 +21°C° 0 mm 6 mps 733 mmHg 69%
    11:00 +22°C° 0 mm 6 mps 733 mmHg 63%
    12:00 +23°C° 0 mm 6 mps 733 mmHg 57%
    13:00 +23°C° 0 mm 6 mps 734 mmHg 57%
    14:00 +23°C° 0 mm 6 mps 734 mmHg 57%
    15:00 +23°C° 0 mm 6 mps 734 mmHg 58%
    16:00 +22°C° 0 mm 6 mps 735 mmHg 62%
    17:00 +21°C° 0 mm 5 mps 735 mmHg 66%
    18:00 +20°C° 0 mm 4 mps 735 mmHg 70%
    19:00 +19°C° 0 mm 3 mps 736 mmHg 73%
    20:00 +17°C° 0 mm 3 mps 736 mmHg 76%
    21:00 +15°C° 0 mm 2 mps 736 mmHg 78%
    22:00 +15°C° 0 mm 2 mps 736 mmHg 78%
    23:00 +15°C° 0 mm 2 mps 736 mmHg 78%

    30 June, Sunday

    Time Temperature Precipitation Wind Pressure Humidity
    00:00 +14°C° 0 mm 2 mps 736 mmHg 78%
    01:00 +14°C° 0 mm 2 mps 737 mmHg 80%
    02:00 +14°C° 0 mm 1 mps 737 mmHg 81%
    03:00 +13°C° 0 mm 1 mps 737 mmHg 83%
    04:00 +14°C° 0 mm 1 mps 737 mmHg 81%
    05:00 +15°C° 0 mm 1 mps 738 mmHg 78%
    06:00 +14°C° 0 mm 0 mps 738 mmHg 76%
    07:00 +16°C° 0 mm 0 mps 738 mmHg 72%
    08:00 +19°C° 0 mm 1 mps 738 mmHg 68%
    09:00 +20°C° 0 mm 1 mps 738 mmHg 63%
    10:00 +20°C° 0 mm 1 mps 738 mmHg 61%
    11:00 +21°C° 0 mm 1 mps 738 mmHg 59%
    12:00 +22°C° 0 mm 1 mps 739 mmHg 57%
    13:00 +22°C° 0 mm 1 mps 739 mmHg 54%
    14:00 +23°C° 0 mm 1 mps 739 mmHg 51%
    15:00 +23°C° 0 mm 1 mps 739 mmHg 48%
    16:00 +23°C° 0.1 mm 1 mps 739 mmHg 56%
    17:00 +21°C° 0.1 mm 2 mps 739 mmHg 63%
    18:00 +20°C° 0.1 mm 3 mps 739 mmHg 70%
    19:00 +18°C° 0.1 mm 3 mps 739 mmHg 77%
    20:00 +17°C° 0.1 mm 2 mps 740 mmHg 84%
    21:00 +15°C° 0.1 mm 2 mps 740 mmHg 91%
    22:00 +15°C° 0 mm 2 mps 740 mmHg 91%
    23:00 +14°C° 0 mm 1 mps 740 mmHg 92%

    1 July, Monday

    Time Temperature Precipitation Wind Pressure Humidity
    00:00 +14°C° 0 mm 1 mps 740 mmHg 92%
    01:00 +14°C° 0 mm 1 mps 741 mmHg 92%
    02:00 +14°C° 0 mm 1 mps 741 mmHg 93%
    03:00 +14°C° 0 mm 1 mps 741 mmHg 93%
    04:00 +14°C° 0 mm 2 mps 741 mmHg 92%
    05:00 +14°C° 0 mm 3 mps 741 mmHg 91%
    06:00 +16°C° 0 mm 3 mps 741 mmHg 90%
    07:00 +16°C° 0 mm 5 mps 741 mmHg 83%
    08:00 +17°C° 0 mm 6 mps 741 mmHg 77%
    09:00 +18°C° 0 mm 7 mps 740 mmHg 70%
    10:00 +20°C° 0 mm 7 mps 740 mmHg 69%
    11:00 +20°C° 0 mm 7 mps 740 mmHg 69%
    12:00 +21°C° 0 mm 7 mps 740 mmHg 68%
    13:00 +20°C° 0.5 mm 6 mps 739 mmHg 76%
    14:00 +19°C° 0.5 mm 6 mps 739 mmHg 83%
    15:00 +17°C° 0.5 mm 6 mps 738 mmHg 91%
    16:00 +16°C° 2.5 mm 5 mps 738 mmHg 93%
    17:00 +16°C° 2.5 mm 5 mps 738 mmHg 94%
    18:00 +17°C° 2.5 mm 4 mps 738 mmHg 96%
    19:00 +17°C° 1.1 mm 4 mps 737 mmHg 97%
    20:00 +17°C° 1.1 mm 3 mps 737 mmHg 97%
    21:00 +16°C° 1.1 mm 3 mps 737 mmHg 98%
    22:00 +16°C° 0.1 mm 3 mps 737 mmHg 98%
    23:00 +16°C° 0.1 mm 2 mps 737 mmHg 98%
    Show more